Tracking 19795 objects as of 18-Jul-2019
HD Live streaming from Space Station
objects crossing your sky now

FENGYUN 1C DEB

Track FENGYUN 1C DEB now!
10-day predictions


NORAD ID: 32410
Int'l Code: 1999-025CZW
Perigee: 499.0 km
Apogee: 606.7 km
Inclination: 97.8 °
Period: 95.6 minutes
Semi major axis: 6923 km
RCS: 0.0096 m2 (small)
Launch date: May 10, 1999
Source: People's Republic of China (PRC)
Launch site: Taiyaun Space Center, China (TSC)

Note: This is SATELLITE DEBRIS
aabbcc
Your satellite tracking list
Your tracking list is empty




NASA's NSSDC Master Catalog

Two Line Element Set (TLE):
1 32410U 99025CZW 19193.85219961  .00007205  00000-0  45464-3 0  9999
2 32410  97.8256  57.5943 0077796 114.8932 246.0407 15.06886833625561
Source of the keplerian elements: AFSPC